Location: Klein M�hlingen
(51.9472°N, 11.7453°E)
Time: 08:50:56
(UTC+00:00)

ISS - Pass Details

Date: 28 September 2021
Orbit: 417 x 423 km, 51.6° (Epoch: 17 October)

Event Time Altitude Azimuth Distance (km) Brightness Sun altitude
Rises 18:59:59 0° 282° (WNW) 2,367 1.6 -19.4°
Reaches altitude 10° 19:02:07 10° 277° (W) 1,502 0.2 -19.7°
Enters shadow 19:05:20 51° 206° (SSW) 536 -3.3 -20.1°
